Latest Weather Observations for Dennes Point

IDT60901

Issued at 4:41 pm EST Thursday 3 September 2015 (issued every 10 minutes, with the page automatically refreshed every 10 minutes)

About weather observations | Map of Hobart area stations | Latest observations for Hobart area | Other Formats
Station Details ID: 094255 Name: DENNES POINT Lat: -43.06 Lon: 147.36 Height: 5.67 m
Data from the previous 72 hours. | See also: Recent months at Dennes Point
Date/Time
EST
Tmp

°C
App
Tmp
°C
Dew
Point
°C
Rel
Hum
%
Delta-T

°C
Wind Press
QNH
hPa
Press
MSL
hPa
Rain
since
9 am
mm
Dir
 
Spd
km/h
Gust
km/h
Spd
kts
Gust
kts
03/04:30pm 9.1 4.5 1.8 60 3.0 S 15 22 8 12 1017.4 1017.4 0.2
03/04:00pm 9.6 4.3 1.8 58 3.2 S 19 28 10 15 1017.2 1017.2 0.2
03/03:30pm 10.4 4.3 0.7 51 4.0 SSW 22 32 12 17 1016.9 1016.9 0.2
03/03:00pm 10.8 5.9 2.1 55 3.7 S 17 26 9 14 1016.7 1016.7 0.2
03/02:30pm 10.8 5.6 2.6 57 3.5 S 19 28 10 15 1016.4 1016.4 0.2
03/02:00pm 10.4 5.5 1.8 55 3.6 S 17 32 9 17 1016.1 1016.1 0.0
03/01:30pm 10.4 4.8 1.5 54 3.7 SSW 20 35 11 19 1016.0 1016.0 0.0
03/01:00pm 11.1 6.1 3.6 60 3.3 SW 19 30 10 16 1015.9 1015.9 0.0
03/12:30pm 10.1 4.5 3.2 62 3.0 SW 22 35 12 19 1016.0 1016.0 0.0
03/12:00pm 9.4 3.8 3.6 67 2.5 SSW 22 35 12 19 1016.1 1016.1 0.0
03/11:30am 10.2 5.3 4.1 66 2.7 SW 19 26 10 14 1015.9 1015.9 0.0
03/11:00am 8.9 2.2 3.7 70 2.3 SW 28 39 15 21 1015.6 1015.6 0.0
03/10:30am 10.4 5.8 3.9 64 2.9 SW 17 24 9 13 1015.2 1015.2 0.0
03/10:00am 9.7 4.5 3.4 65 2.7 SW 20 28 11 15 1015.0 1015.0 0.0
03/09:30am 8.9 2.9 3.1 67 2.5 SSW 24 39 13 21 1014.8 1014.8 0.0
03/09:00am 9.5 4.7 4.5 71 2.2 SW 19 28 10 15 1014.3 1014.3 1.0
03/08:30am 9.0 4.2 4.8 75 1.9 SW 19 28 10 15 1013.9 1013.9 1.0
03/08:00am 8.5 4.2 5.3 80 1.4 SSW 17 26 9 14 1013.5 1013.5 1.0
03/07:30am 7.8 3.1 5.1 83 1.2 SSW 19 26 10 14 1013.2 1013.2 1.0
03/07:00am 7.9 4.1 6.0 88 0.9 SSW 15 22 8 12 1012.4 1012.4 1.0
03/06:30am 7.8 4.9 6.4 91 0.6 SSW 11 17 6 9 1011.9 1011.9 1.0
03/06:00am 7.9 4.1 5.9 87 0.9 SSW 15 20 8 11 1011.2 1011.2 0.8
03/05:30am 8.6 4.4 5.9 83 1.2 SSW 17 28 9 15 1010.4 1010.4 0.8
03/05:00am 8.4 5.3 5.7 83 1.2 SW 11 15 6 8 1010.2 1010.2 0.8
03/04:30am 8.2 5.5 5.7 84 1.1 S 9 13 5 7 1009.9 1009.9 0.8
03/04:00am 8.2 5.9 5.8 85 1.1 SW 7 13 4 7 1009.5 1009.5 0.8
03/03:30am 8.1 4.7 6.1 87 0.9 SW 13 19 7 10 1009.4 1009.4 0.8
03/03:00am 8.3 4.4 6.9 91 0.7 SSW 17 24 9 13 1009.2 1009.2 0.8
03/02:30am 8.5 3.7 7.3 92 0.6 SSW 22 33 12 18 1009.2 1009.2 0.6
03/02:00am 8.5 5.4 7.1 91 0.7 SSW 13 24 7 13 1009.1 1009.1 0.6
03/01:30am 8.7 7.3 7.3 91 0.7 SSW 4 6 2 3 1009.3 1009.3 0.6
03/01:00am 8.4 6.9 7.0 91 0.7 N 4 7 2 4 1008.8 1008.8 0.6
03/12:30am 8.7 8.0 7.0 89 0.8 CALM 0 0 0 0 1008.8 1008.8 0.6
03/12:00am 8.8 8.1 7.1 89 0.8 CALM 0 0 0 0 1008.7 1008.7 0.6
 
Date/Time
EST
Tmp

°C
App
Tmp
°C
Dew
Point
°C
Rel
Hum
%
Delta-T

°C
Wind Press
QNH
hPa
Press
MSL
hPa
Rain
since
9 am
mm
Dir
 
Spd
km/h
Gust
km/h
Spd
kts
Gust
kts
02/11:30pm 8.8 7.0 7.1 89 0.8 N 6 6 3 3 1008.6 1008.6 0.6
02/11:00pm 8.9 7.1 7.2 89 0.8 N 6 7 3 4 1008.9 1008.9 0.4
02/10:30pm 8.8 6.8 7.1 89 0.8 N 7 9 4 5 1009.2 1009.2 0.4
02/10:00pm 8.8 8.1 6.9 88 0.9 CALM 0 0 0 0 1009.1 1009.1 0.4
02/09:30pm 8.6 6.7 6.7 88 0.9 S 6 7 3 4 1009.2 1009.2 0.2
02/09:00pm 8.7 7.9 6.7 87 0.9 CALM 0 0 0 0 1009.1 1009.1 0.0
02/08:30pm 8.7 7.6 6.7 87 0.9 SSW 2 4 1 2 1009.1 1009.1 0.0
02/08:00pm 8.6 7.0 6.4 86 1.0 SSW 4 6 2 3 1009.1 1009.1 0.0
02/07:30pm 8.6 7.0 6.2 85 1.1 S 4 6 2 3 1009.1 1009.1 0.0
02/07:00pm 8.8 8.0 6.3 84 1.2 CALM 0 0 0 0 1008.8 1008.8 0.0
02/06:30pm 8.7 7.7 5.6 81 1.4 CALM 0 0 0 0 1008.8 1008.8 0.0
02/06:00pm 9.2 7.5 5.8 79 1.6 SE 4 6 2 3 1008.9 1008.9 0.0
02/05:30pm 9.4 7.2 5.4 76 1.8 SSE 6 9 3 5 1008.7 1008.7 0.0
02/05:00pm 9.7 6.9 5.3 74 2.0 SE 9 15 5 8 1008.5 1008.5 0.0
02/04:30pm 10.4 8.3 6.7 78 1.7 SSE 7 11 4 6 1008.5 1008.5 0.0
02/04:00pm 10.4 8.9 6.9 79 1.7 ESE 4 6 2 3 1008.3 1008.3 0.0
02/03:30pm 10.5 8.6 6.6 77 1.8 ESE 6 9 3 5 1008.5 1008.5 0.0
02/03:00pm 11.2 9.3 6.7 74 2.1 SW 6 9 3 5 1008.5 1008.5 0.0
02/02:30pm 11.4 9.5 6.5 72 2.3 ESE 6 9 3 5 1008.6 1008.6 0.0
02/02:00pm 11.5 9.3 6.0 69 2.6 E 7 7 4 4 1008.7 1008.7 0.0
02/01:30pm 11.4 9.3 5.9 69 2.6 NNE 6 6 3 3 1009.3 1009.3 0.0
02/01:00pm 11.0 9.4 6.2 72 2.2 NE 4 6 2 3 1009.6 1009.6 0.0
02/12:30pm 10.7 9.2 6.8 77 1.8 NNE 4 4 2 2 1010.1 1010.1 0.0
02/12:00pm 9.9 8.0 6.8 81 1.5 NE 6 6 3 3 1010.7 1010.7 0.0
02/11:30am 9.6 8.5 6.7 82 1.4 NE 2 6 1 3 1011.2 1011.2 0.0
02/11:00am 8.6 6.7 6.7 88 0.9 E 6 9 3 5 1011.5 1011.5 0.0
02/10:30am 7.7 6.1 6.5 92 0.5 ENE 4 6 2 3 1011.9 1011.9 0.0
02/10:00am 7.1 5.8 6.2 94 0.4 N 2 4 1 2 1012.2 1012.2 0.0
02/09:30am 6.0 3.8 5.4 96 0.3 NNE 6 7 3 4 1012.2 1012.2 0.0
02/09:00am 5.8 3.9 5.1 95 0.3 WNW 4 6 2 3 1012.4 1012.4 0.0
02/08:30am 6.0 5.0 5.4 96 0.3 CALM 0 6 0 3 1012.6 1012.6 0.0
02/08:00am 6.0 4.2 5.4 96 0.3 SW 4 6 2 3 1012.9 1012.9 0.0
02/07:30am 6.0 3.8 5.4 96 0.3 SE 6 7 3 4 1012.7 1012.7 0.0
02/07:00am 5.7 4.6 5.1 96 0.3 CALM 0 0 0 0 1012.5 1012.5 0.0
02/06:30am 6.0 3.8 5.4 96 0.3 NNE 6 11 3 6 1012.4 1012.4 0.0
02/06:00am 6.0 2.1 5.4 96 0.3 N 15 19 8 10 1012.5 1012.5 0.0
02/05:30am 6.2 3.5 5.6 96 0.3 N 9 13 5 7 1012.5 1012.5 0.0
02/05:00am 6.0 2.1 5.4 96 0.3 N 15 17 8 9 1012.7 1012.7 0.0
02/04:30am 6.3 4.0 5.6 95 0.3 N 7 9 4 5 1012.6 1012.6 0.0
02/04:00am 5.7 4.6 5.0 95 0.3 CALM 0 0 0 0 1012.5 1012.5 0.0
02/03:30am 6.2 4.4 5.5 95 0.3 NNE 4 6 2 3 1012.5 1012.5 0.0
02/03:00am 6.0 3.8 5.3 95 0.3 SW 6 6 3 3 1013.1 1013.1 0.0
02/02:30am 6.0 3.6 5.3 95 0.3 SSW 7 7 4 4 1013.5 1013.5 0.0
02/02:00am 6.2 3.0 5.3 94 0.4 SSW 11 11 6 6 1014.1 1014.1 0.0
02/01:30am 6.2 3.8 5.2 93 0.4 SSW 7 9 4 5 1014.2 1014.2 0.0
02/01:00am 6.8 5.0 5.6 92 0.5 WSW 4 4 2 2 1014.1 1014.1 0.0
02/12:30am 7.1 6.2 5.9 92 0.5 CALM 0 0 0 0 1014.2 1014.2 0.0
02/12:00am 7.0 5.7 5.8 92 0.5 NNW 2 4 1 2 1014.2 1014.2 0.0
 
Date/Time
EST
Tmp

°C
App
Tmp
°C
Dew
Point
°C
Rel
Hum
%
Delta-T

°C
Wind Press
QNH
hPa
Press
MSL
hPa
Rain
since
9 am
mm
Dir
 
Spd
km/h
Gust
km/h
Spd
kts
Gust
kts
01/11:30pm 6.4 4.6 5.2 92 0.5 S 4 6 2 3 1014.3 1014.3 0.0
01/11:00pm 7.1 4.8 5.9 92 0.5 SSW 7 7 4 4 1014.2 1014.2 0.0
01/10:30pm 7.4 5.3 5.7 89 0.8 SSW 6 6 3 3 1014.4 1014.4 0.0
01/10:00pm 8.1 6.2 6.6 90 0.7 SSW 6 6 3 3 1014.4 1014.4 0.0
01/09:30pm 8.3 6.8 6.8 90 0.7 SSW 4 4 2 2 1014.5 1014.5 0.0
01/09:00pm 8.3 6.8 6.6 89 0.8 SSW 4 6 2 3 1014.3 1014.3 0.0
01/08:30pm 8.5 7.0 6.6 88 0.9 SSW 4 6 2 3 1014.2 1014.2 0.0
01/08:00pm 8.6 7.0 6.4 86 1.0 SW 4 7 2 4 1014.4 1014.4 0.0
01/07:30pm 8.6 6.4 6.1 84 1.1 SSE 7 9 4 5 1014.1 1014.1 0.0
01/07:00pm 8.3 6.1 6.1 86 1.0 SE 7 9 4 5 1013.9 1013.9 0.0
01/06:30pm 8.4 6.2 6.0 85 1.1 SE 7 9 4 5 1013.9 1013.9 0.0
01/06:00pm 8.5 6.3 6.0 84 1.1 SE 7 9 4 5 1013.7 1013.7 0.0
01/05:30pm 9.0 6.8 6.1 82 1.3 SE 7 11 4 6 1013.8 1013.8 0.0
01/05:00pm 9.3 6.8 6.4 82 1.3 ESE 9 11 5 6 1013.6 1013.6 0.0
01/04:30pm 10.0 7.2 6.9 81 1.5 ESE 11 13 6 7 1013.8 1013.8 0.0
01/04:00pm 9.7 6.9 7.0 83 1.3 ESE 11 15 6 8 1013.9 1013.9 0.0
01/03:30pm 10.4 7.3 7.3 81 1.5 ESE 13 15 7 8 1014.2 1014.2 0.0
01/03:00pm 10.6 7.8 7.1 79 1.7 ESE 11 15 6 8 1014.3 1014.3 0.0
01/02:30pm 10.6 8.5 6.7 77 1.8 E 7 9 4 5 1014.4 1014.4 0.0
01/02:00pm 10.9 8.1 7.0 77 1.9 ESE 11 15 6 8 1014.6 1014.6 0.0
01/01:30pm 11.5 8.7 7.0 74 2.1 ESE 11 13 6 7 1014.9 1014.9 0.0
01/01:00pm 11.4 9.1 7.3 76 2.0 ESE 9 11 5 6 1015.0 1015.0 0.0
01/12:30pm 11.2 9.3 6.9 75 2.0 E 6 7 3 4 1015.3 1015.3 0.0
01/12:00pm 10.8 8.9 6.7 76 1.9 NE 6 7 3 4 1015.8 1015.8 0.0
01/11:30am 9.8 7.8 6.2 78 1.7 N 6 7 3 4 1016.0 1016.0 0.0
01/11:00am 10.7 8.9 7.0 78 1.8 W 6 7 3 4 1016.1 1016.1 0.0
01/10:30am 9.3 7.0 5.7 78 1.6 WSW 7 9 4 5 1016.2 1016.2 0.0
01/10:00am 9.3 6.3 6.2 81 1.4 WSW 11 13 6 7 1016.5 1016.5 0.0
01/09:30am 8.8 6.2 6.1 83 1.2 WSW 9 11 5 6 1016.7 1016.7 0.0
01/09:00am 8.2 6.5 5.8 85 1.1 SW 4 6 2 3 1016.9 1016.9 5.2
01/08:30am 7.7 5.6 5.8 88 0.9 SSW 6 7 3 4 1016.9 1016.9 5.2
01/08:00am 7.6 5.6 6.1 90 0.7 SSW 6 7 3 4 1016.8 1016.8 5.2
01/07:30am 7.2 5.1 6.0 92 0.5 SW 6 6 3 3 1016.8 1016.8 5.2
01/07:00am 6.4 4.6 5.2 92 0.5 SW 4 6 2 3 1016.7 1016.7 5.2
01/06:30am 6.9 4.7 5.5 91 0.6 SW 6 7 3 4 1016.6 1016.6 5.2
01/06:00am 7.1 4.4 5.6 90 0.7 SW 9 13 5 7 1016.5 1016.5 5.2
01/05:30am 7.4 3.6 5.9 90 0.7 WSW 15 19 8 10 1016.4 1016.4 5.2
01/05:00am 7.3 3.5 5.9 91 0.6 WSW 15 17 8 9 1016.4 1016.4 5.2
01/04:30am 6.8 4.5 5.9 94 0.4 SW 7 11 4 6 1016.6 1016.6 5.2
01/04:00am 6.2 3.5 5.5 95 0.3 SW 9 11 5 6 1016.5 1016.5 5.2
01/03:30am 6.5 3.8 5.6 94 0.4 SSW 9 11 5 6 1016.8 1016.8 5.2
01/03:00am 6.7 3.7 6.0 95 0.3 SSW 11 13 6 7 1017.0 1017.0 5.2
01/02:30am 6.6 4.0 5.9 95 0.3 SSW 9 9 5 5 1017.1 1017.1 5.2
01/02:00am 7.2 4.7 6.5 95 0.3 SSW 9 11 5 6 1017.5 1017.5 5.2
01/01:30am 7.3 5.2 6.6 95 0.3 SW 7 7 4 4 1017.8 1017.8 5.2
01/01:00am 8.0 6.0 7.2 95 0.4 WSW 7 9 4 5 1018.1 1018.1 5.2
01/12:30am 7.8 5.8 7.1 95 0.3 SW 7 9 4 5 1018.3 1018.3 5.2
01/12:00am 7.6 5.2 6.9 95 0.3 SW 9 11 5 6 1018.3 1018.3 5.2
 
Date/Time
EST
Tmp

°C
App
Tmp
°C
Dew
Point
°C
Rel
Hum
%
Delta-T

°C
Wind Press
QNH
hPa
Press
MSL
hPa
Rain
since
9 am
mm
Dir
 
Spd
km/h
Gust
km/h
Spd
kts
Gust
kts
31/11:30pm 7.8 5.4 6.9 94 0.4 SW 9 11 5 6 1018.3 1018.3 5.2
31/11:00pm 8.0 6.0 7.1 94 0.4 SSW 7 9 4 5 1018.7 1018.7 5.2
31/10:30pm 7.8 5.7 6.7 93 0.5 SSW 7 11 4 6 1018.9 1018.9 5.0
31/10:00pm 8.0 6.1 6.9 93 0.5 SSW 6 7 3 4 1019.2 1019.2 5.0
31/09:30pm 8.3 6.3 7.1 92 0.6 SSW 7 9 4 5 1019.4 1019.4 5.0
31/09:00pm 8.3 6.4 6.9 91 0.6 SSW 6 6 3 3 1019.4 1019.4 5.0
31/08:30pm 8.7 6.7 7.2 90 0.7 S 7 13 4 7 1019.3 1019.3 5.0
31/08:00pm 9.0 7.8 8.1 94 0.4 SSE 4 11 2 6 1019.3 1019.3 5.0
31/07:30pm 8.6 7.0 8.0 96 0.3 S 6 11 3 6 1019.2 1019.2 5.0
31/07:00pm 8.4 6.6 7.8 96 0.3 SSW 7 9 4 5 1019.2 1019.2 4.0
31/06:30pm 8.3 6.4 7.7 96 0.3 SW 7 11 4 6 1019.3 1019.3 3.6
31/06:00pm 8.2 5.5 7.4 95 0.4 SW 11 13 6 7 1019.3 1019.3 1.8
31/05:30pm 8.2 5.1 7.3 94 0.4 SW 13 17 7 9 1019.3 1019.3 0.6
31/05:00pm 8.5 5.8 7.4 93 0.5 SW 11 15 6 8 1019.4 1019.4 0.2

Latest Capital City Observations: Canberra | Sydney | Melbourne | Brisbane | Adelaide | Perth | Hobart | Darwin

Other Formats:

Comma delimited format used in spreadsheet applications
http://www.bom.gov.au/fwo/IDT60901/IDT60901.94988.axf

JavaScript Object Notation format (JSON) in row-major order
http://www.bom.gov.au/fwo/IDT60901/IDT60901.94988.json